Location: Sternwarte Hubelmatt
(47.0367°N, 8.3053°E)
Time: 21:44:28
(UTC+01:00)

BlueWalker 3 - Visible Passes

Search period start: 18 January 2026 00:00
Search period end: 28 January 2026 00:00
Orbit: 451 x 463 km, 53.2° (Epoch: 18 January)

Date Brightness Start Highest point End Pass type
(mag) Time Alt. Az. Time Alt. Az. Time Alt. Az.
19 Jan 4.1 19:32:16 10° SSW 19:33:08 15° S 19:33:08 15° S visible
20 Jan 3.3 18:57:14 10° S 18:59:36 22° SSE 18:59:36 22° SSE visible
21 Jan 3.5 18:22:19 10° S 18:24:49 18° SE 18:26:00 16° ESE visible
21 Jan 4.1 19:58:21 10° WSW 19:59:45 22° WSW 19:59:45 22° WSW visible
22 Jan 3.9 17:47:35 10° SSE 17:49:32 14° SE 17:51:29 10° E visible
22 Jan 2.0 19:22:57 10° SW 19:26:03 64° SW 19:26:03 64° SW visible
23 Jan 1.7 18:47:36 10° SW 18:51:08 66° SE 18:52:16 39° ENE visible
23 Jan 4.9 20:25:29 10° W 20:26:01 13° W 20:26:01 13° W visible
24 Jan 2.1 18:12:17 10° SW 18:15:44 51° SE 18:18:26 16° ENE visible
24 Jan 3.5 19:49:56 10° W 19:52:10 30° WNW 19:52:10 30° WNW visible
25 Jan 2.3 19:14:23 10° W 19:17:50 46° NNW 19:18:15 43° N visible
26 Jan 2.2 18:38:50 10° W 18:42:20 53° NNW 18:44:17 23° NE visible
26 Jan 4.6 20:17:10 10° WNW 20:18:01 15° NW 20:18:01 15° NW visible
27 Jan 2.0 18:03:18 10° WSW 18:06:51 63° NNW 18:10:17 11° ENE visible
27 Jan 3.4 19:41:36 10° WNW 19:44:01 27° NNW 19:44:01 27° NNW visible
